Time,TemperatureF,DewpointF,PressureIn,WindDirection,WindDirectionDegrees,WindSpeedMPH,WindSpeedGustMPH,Humidity,HourlyPrecipIn,Conditions,Clouds,dailyrainin,SolarRadiationWatts/m^2,SoftwareType,DateUTC
2013-10-13 00:00:00,60.1,51.1,30.27,East,91,5.0,15.0,72,0.00,,,0.00,0.00,VWS V14.01,2013-10-13 04:00:00,
2013-10-13 00:01:00,60.1,51.1,30.27,East,91,7.0,15.0,72,0.00,,,0.00,0.00,VWS V14.01,2013-10-13 04:01:00,
2013-10-13 00:06:00,59.9,51.2,30.27,East,90,5.0,8.0,73,0.00,,,0.00,0.00,VWS V14.01,2013-10-13 04:06:00,
2013-10-13 00:11:00,59.8,51.1,30.27,NE,46,0.0,10.0,73,0.00,,,0.00,0.00,VWS V14.01,2013-10-13 04:11:00,
2013-10-13 00:15:00,59.8,51.5,30.27,NE,53,1.0,10.0,74,0.00,,,0.00,0.00,VWS V14.01,2013-10-13 04:15:00,
2013-10-13 00:16:00,59.8,51.5,30.27,NE,36,6.0,7.0,74,0.00,,,0.00,0.00,VWS V14.01,2013-10-13 04:16:00,
2013-10-13 00:21:00,59.6,51.3,30.27,SE,128,0.0,10.0,74,0.00,,,0.00,0.00,VWS V14.01,2013-10-13 04:21:00,
2013-10-13 00:26:00,59.5,51.2,30.27,NE,55,3.0,11.0,74,0.00,,,0.00,0.00,VWS V14.01,2013-10-13 04:26:00,
2013-10-13 00:30:00,59.5,51.2,30.27,East,90,0.0,11.0,74,0.00,,,0.00,0.00,VWS V14.01,2013-10-13 04:30:00,
2013-10-13 00:31:00,59.5,51.2,30.27,East,90,0.0,0.0,74,0.00,,,0.00,0.00,VWS V14.01,2013-10-13 04:31:00,
2013-10-13 00:36:00,59.5,51.2,30.27,NE,48,7.0,7.0,74,0.00,,,0.00,0.00,VWS V14.01,2013-10-13 04:36:00,
2013-10-13 00:41:00,59.3,51.4,30.27,NNE,20,8.0,8.0,75,0.00,,,0.00,0.00,VWS V14.01,2013-10-13 04:41:00,
2013-10-13 00:45:00,59.2,51.3,30.27,NE,35,7.0,10.0,75,0.00,,,0.00,0.00,VWS V14.01,2013-10-13 04:45:00,
2013-10-13 00:46:00,59.2,51.3,30.27,NE,34,7.0,9.0,75,0.00,,,0.00,0.00,VWS V14.01,2013-10-13 04:46:00,
2013-10-13 00:51:00,59.2,51.3,30.27,NE,41,5.0,9.0,75,0.00,,,0.00,0.00,VWS V14.01,2013-10-13 04:51:00,
2013-10-13 00:56:00,59.0,51.5,30.27,NE,42,0.0,9.0,76,0.00,,,0.00,0.00,VWS V14.01,2013-10-13 04:56:00,
2013-10-13 01:00:00,59.0,51.5,30.27,ENE,67,6.0,9.0,76,0.00,,,0.00,0.00,VWS V14.01,2013-10-13 05:00:00,
2013-10-13 01:01:00,58.9,51.4,30.27,ENE,71,0.0,7.0,76,0.00,,,0.00,0.00,VWS V14.01,2013-10-13 05:01:00,
2013-10-13 01:06:00,58.9,51.4,30.27,NE,56,4.0,8.0,76,0.00,,,0.00,0.00,VWS V14.01,2013-10-13 05:06:00,
2013-10-13 01:11:00,58.7,51.2,30.27,NE,49,6.0,13.0,76,0.00,,,0.00,0.00,VWS V14.01,2013-10-13 05:11:00,
2013-10-13 01:15:00,58.7,51.2,30.27,ENE,73,4.0,13.0,76,0.00,,,0.00,0.00,VWS V14.01,2013-10-13 05:15:00,
2013-10-13 01:16:00,58.7,51.2,30.27,NE,46,10.0,10.0,76,0.00,,,0.00,0.00,VWS V14.01,2013-10-13 05:16:00,
2013-10-13 01:21:00,58.6,51.1,30.27,NE,36,5.0,11.0,76,0.00,,,0.00,0.00,VWS V14.01,2013-10-13 05:21:00,
2013-10-13 01:26:00,58.4,50.9,30.27,NE,43,9.0,11.0,76,0.00,,,0.00,0.00,VWS V14.01,2013-10-13 05:26:00,
2013-10-13 01:30:00,58.4,50.9,30.27,NNE,25,0.0,11.0,76,0.00,,,0.00,0.00,VWS V14.01,2013-10-13 05:30:00,
2013-10-13 01:31:00,58.4,50.9,30.27,ESE,104,6.0,6.0,76,0.00,,,0.00,0.00,VWS V14.01,2013-10-13 05:31:00,
2013-10-13 01:36:00,58.3,50.8,30.27,East,91,5.0,7.0,76,0.00,,,0.00,0.00,VWS V14.01,2013-10-13 05:36:00,
2013-10-13 01:41:00,58.3,50.8,30.27,NNE,28,4.0,8.0,76,0.00,,,0.00,0.00,VWS V14.01,2013-10-13 05:41:00,
2013-10-13 01:45:00,58.1,50.6,30.28,NE,52,0.0,12.0,76,0.00,,,0.00,0.00,VWS V14.01,2013-10-13 05:45:00,
2013-10-13 01:46:00,58.1,50.6,30.28,NE,52,0.0,0.0,76,0.00,,,0.00,0.00,VWS V14.01,2013-10-13 05:46:00,
2013-10-13 01:51:00,58.1,50.6,30.28,NE,51,0.0,9.0,76,0.00,,,0.00,0.00,VWS V14.01,2013-10-13 05:51:00,
2013-10-13 01:56:00,58.1,50.6,30.28,NE,42,6.0,9.0,76,0.00,,,0.00,0.00,VWS V14.01,2013-10-13 05:56:00,
2013-10-13 02:00:00,58.1,50.6,30.28,ENE,64,5.0,10.0,76,0.00,,,0.00,0.00,VWS V14.01,2013-10-13 06:00:00,
2013-10-13 02:01:00,58.1,50.6,30.28,ENE,64,3.0,5.0,76,0.00,,,0.00,0.00,VWS V14.01,2013-10-13 06:01:00,
2013-10-13 02:06:00,58.1,50.6,30.28,NNE,32,8.0,12.0,76,0.00,,,0.00,0.00,VWS V14.01,2013-10-13 06:06:00,
2013-10-13 02:11:00,58.0,50.5,30.28,NE,45,0.0,12.0,76,0.00,,,0.00,0.00,VWS V14.01,2013-10-13 06:11:00,
2013-10-13 02:15:00,58.0,50.5,30.28,NE,51,0.0,12.0,76,0.00,,,0.00,0.00,VWS V14.01,2013-10-13 06:15:00,
2013-10-13 02:16:00,58.0,50.5,30.28,NE,51,0.0,0.0,76,0.00,,,0.00,0.00,VWS V14.01,2013-10-13 06:16:00,
2013-10-13 02:21:00,58.0,50.5,30.28,NE,55,5.0,9.0,76,0.00,,,0.00,0.00,VWS V14.01,2013-10-13 06:21:00,
2013-10-13 02:26:00,58.0,50.5,30.28,ENE,70,4.0,11.0,76,0.00,,,0.00,0.00,VWS V14.01,2013-10-13 06:26:00,
2013-10-13 02:30:00,57.8,50.3,30.28,ENE,67,4.0,11.0,76,0.00,,,0.00,0.00,VWS V14.01,2013-10-13 06:30:00,
2013-10-13 02:31:00,57.8,50.3,30.28,ENE,68,4.0,5.0,76,0.00,,,0.00,0.00,VWS V14.01,2013-10-13 06:31:00,
2013-10-13 02:36:00,57.8,50.3,30.28,NE,39,0.0,6.0,76,0.00,,,0.00,0.00,VWS V14.01,2013-10-13 06:36:00,
2013-10-13 02:41:00,57.8,50.3,30.28,NE,43,1.0,9.0,76,0.00,,,0.00,0.00,VWS V14.01,2013-10-13 06:41:00,
2013-10-13 02:45:00,57.6,50.1,30.28,NE,46,6.0,9.0,76,0.00,,,0.00,0.00,VWS V14.01,2013-10-13 06:45:00,
2013-10-13 02:46:00,57.6,50.1,30.28,ENE,65,6.0,8.0,76,0.00,,,0.00,0.00,VWS V14.01,2013-10-13 06:46:00,
2013-10-13 02:51:00,57.6,50.1,30.28,NE,55,1.0,8.0,76,0.00,,,0.00,0.00,VWS V14.01,2013-10-13 06:51:00,
2013-10-13 02:56:00,57.5,50.0,30.28,East,90,7.0,8.0,76,0.00,,,0.00,0.00,VWS V14.01,2013-10-13 06:56:00,
2013-10-13 03:00:00,57.5,50.0,30.27,ENE,59,1.0,8.0,76,0.00,,,0.00,0.00,VWS V14.01,2013-10-13 07:00:00,
2013-10-13 03:01:00,57.5,50.0,30.27,NE,55,3.0,6.0,76,0.00,,,0.00,0.00,VWS V14.01,2013-10-13 07:01:00,
2013-10-13 03:06:00,57.5,50.0,30.27,East,96,6.0,9.0,76,0.00,,,0.00,0.00,VWS V14.01,2013-10-13 07:06:00,
2013-10-13 03:11:00,57.5,50.0,30.27,ENE,72,0.0,9.0,76,0.00,,,0.00,0.00,VWS V14.01,2013-10-13 07:11:00,
2013-10-13 03:15:00,57.3,49.5,30.27,ESE,116,8.0,15.0,75,0.00,,,0.00,0.00,VWS V14.01,2013-10-13 07:15:00,
2013-10-13 03:16:00,57.3,49.5,30.27,East,94,1.0,8.0,75,0.00,,,0.00,0.00,VWS V14.01,2013-10-13 07:16:00,
2013-10-13 03:21:00,57.3,49.8,30.27,ENE,67,0.0,8.0,76,0.00,,,0.00,0.00,VWS V14.01,2013-10-13 07:21:00,
2013-10-13 03:26:00,57.2,49.7,30.27,ENE,59,6.0,11.0,76,0.00,,,0.00,0.00,VWS V14.01,2013-10-13 07:26:00,
2013-10-13 03:30:00,57.2,49.7,30.26,NE,34,6.0,12.0,76,0.00,,,0.00,0.00,VWS V14.01,2013-10-13 07:30:00,
2013-10-13 03:31:00,57.0,49.5,30.26,ENE,64,6.0,7.0,76,0.00,,,0.00,0.00,VWS V14.01,2013-10-13 07:31:00,
2013-10-13 03:36:00,57.0,49.5,30.26,ENE,73,0.0,9.0,76,0.00,,,0.00,0.00,VWS V14.01,2013-10-13 07:36:00,
2013-10-13 03:41:00,56.9,49.4,30.26,ENE,57,1.0,10.0,76,0.00,,,0.00,0.00,VWS V14.01,2013-10-13 07:41:00,
2013-10-13 03:45:00,56.7,49.2,30.27,East,82,9.0,10.0,76,0.00,,,0.00,0.00,VWS V14.01,2013-10-13 07:45:00,
2013-10-13 03:46:00,56.7,49.2,30.27,ENE,61,7.0,9.0,76,0.00,,,0.00,0.00,VWS V14.01,2013-10-13 07:46:00,
2013-10-13 03:51:00,56.7,49.2,30.27,NE,46,4.0,9.0,76,0.00,,,0.00,0.00,VWS V14.01,2013-10-13 07:51:00,
2013-10-13 03:56:00,56.6,49.1,30.27,ENE,57,8.0,9.0,76,0.00,,,0.00,0.00,VWS V14.01,2013-10-13 07:56:00,
2013-10-13 04:00:00,56.6,49.5,30.27,NNE,27,6.0,9.0,77,0.00,,,0.00,0.00,VWS V14.01,2013-10-13 08:00:00,
2013-10-13 04:01:00,56.6,49.5,30.27,NNE,32,4.0,6.0,77,0.00,,,0.00,0.00,VWS V14.01,2013-10-13 08:01:00,
2013-10-13 04:06:00,56.5,49.4,30.27,ENE,66,9.0,10.0,77,0.00,,,0.00,0.00,VWS V14.01,2013-10-13 08:06:00,
2013-10-13 04:11:00,56.5,49.4,30.27,NE,47,5.0,13.0,77,0.00,,,0.00,0.00,VWS V14.01,2013-10-13 08:11:00,
2013-10-13 04:15:00,56.3,49.2,30.28,NE,55,3.0,13.0,77,0.00,,,0.00,0.00,VWS V14.01,2013-10-13 08:15:00,
2013-10-13 04:16:00,56.3,49.2,30.28,NE,55,0.0,3.0,77,0.00,,,0.00,0.00,VWS V14.01,2013-10-13 08:16:00,
2013-10-13 04:21:00,56.3,49.2,30.28,NE,48,8.0,8.0,77,0.00,,,0.00,0.00,VWS V14.01,2013-10-13 08:21:00,
2013-10-13 04:26:00,56.2,49.1,30.28,NE,41,0.0,10.0,77,0.00,,,0.00,0.00,VWS V14.01,2013-10-13 08:26:00,
2013-10-13 04:30:00,56.0,49.2,30.28,NE,42,3.0,10.0,78,0.00,,,0.00,0.00,VWS V14.01,2013-10-13 08:30:00,
2013-10-13 04:31:00,56.0,49.2,30.28,NE,42,2.0,3.0,78,0.00,,,0.00,0.00,VWS V14.01,2013-10-13 08:31:00,
2013-10-13 04:36:00,55.9,49.2,30.28,NE,38,1.0,8.0,78,0.00,,,0.00,0.00,VWS V14.01,2013-10-13 08:36:00,
2013-10-13 04:41:00,55.7,49.0,30.28,NE,38,0.0,10.0,78,0.00,,,0.00,0.00,VWS V14.01,2013-10-13 08:41:00,
2013-10-13 04:45:00,55.6,48.9,30.28,ENE,66,4.0,10.0,78,0.00,,,0.00,0.00,VWS V14.01,2013-10-13 08:45:00,
2013-10-13 04:46:00,55.6,48.9,30.28,ENE,66,5.0,6.0,78,0.00,,,0.00,0.00,VWS V14.01,2013-10-13 08:46:00,
2013-10-13 04:51:00,55.4,48.7,30.28,NE,51,0.0,6.0,78,0.00,,,0.00,0.00,VWS V14.01,2013-10-13 08:51:00,
2013-10-13 04:56:00,55.3,48.9,30.28,NE,44,2.0,8.0,79,0.00,,,0.00,0.00,VWS V14.01,2013-10-13 08:56:00,
2013-10-13 05:00:00,55.1,48.7,30.29,NE,54,7.0,11.0,79,0.00,,,0.00,0.00,VWS V14.01,2013-10-13 09:00:00,
2013-10-13 05:01:00,55.1,48.7,30.29,NE,55,8.0,8.0,79,0.00,,,0.00,0.00,VWS V14.01,2013-10-13 09:01:00,
2013-10-13 05:06:00,55.0,48.6,30.29,NE,54,1.0,10.0,79,0.00,,,0.00,0.00,VWS V14.01,2013-10-13 09:06:00,
2013-10-13 05:11:00,55.0,48.6,30.29,NNE,32,7.0,10.0,79,0.00,,,0.00,0.00,VWS V14.01,2013-10-13 09:11:00,
2013-10-13 05:15:00,54.8,48.4,30.29,NNE,29,0.0,10.0,79,0.00,,,0.00,0.00,VWS V14.01,2013-10-13 09:15:00,
2013-10-13 05:16:00,54.8,48.4,30.29,NE,36,0.0,0.0,79,0.00,,,0.00,0.00,VWS V14.01,2013-10-13 09:16:00,
2013-10-13 05:21:00,54.8,48.4,30.29,ENE,58,6.0,10.0,79,0.00,,,0.00,0.00,VWS V14.01,2013-10-13 09:21:00,
2013-10-13 05:26:00,54.8,48.8,30.29,NE,39,6.0,10.0,80,0.00,,,0.00,0.00,VWS V14.01,2013-10-13 09:26:00,
2013-10-13 05:30:00,54.7,48.7,30.30,East,85,0.0,10.0,80,0.00,,,0.00,0.00,VWS V14.01,2013-10-13 09:30:00,
2013-10-13 05:31:00,54.7,48.7,30.30,East,85,0.0,10.0,80,0.00,,,0.00,0.00,VWS V14.01,2013-10-13 09:31:00,
2013-10-13 05:36:00,54.7,48.3,30.30,ENE,61,5.0,9.0,79,0.00,,,0.00,0.00,VWS V14.01,2013-10-13 09:36:00,
2013-10-13 05:41:00,54.7,48.7,30.30,NE,50,5.0,9.0,80,0.00,,,0.00,0.00,VWS V14.01,2013-10-13 09:41:00,
2013-10-13 05:45:00,54.7,48.7,30.31,NE,53,7.0,9.0,80,0.00,,,0.00,0.00,VWS V14.01,2013-10-13 09:45:00,
2013-10-13 05:46:00,54.7,48.7,30.31,NE,53,7.0,9.0,80,0.00,,,0.00,0.00,VWS V14.01,2013-10-13 09:46:00,
2013-10-13 05:51:00,54.7,48.7,30.31,East,82,4.0,8.0,80,0.00,,,0.00,0.00,VWS V14.01,2013-10-13 09:51:00,
2013-10-13 05:56:00,54.7,48.7,30.31,NE,34,2.0,8.0,80,0.00,,,0.00,0.00,VWS V14.01,2013-10-13 09:56:00,
2013-10-13 06:00:00,54.7,48.7,30.31,NE,42,4.0,8.0,80,0.00,,,0.00,0.00,VWS V14.01,2013-10-13 10:00:00,
2013-10-13 06:01:00,54.7,48.7,30.31,NE,42,4.0,8.0,80,0.00,,,0.00,0.00,VWS V14.01,2013-10-13 10:01:00,
2013-10-13 06:06:00,54.5,48.5,30.31,NE,56,5.0,9.0,80,0.00,,,0.00,0.00,VWS V14.01,2013-10-13 10:06:00,
2013-10-13 06:11:00,54.5,48.5,30.31,ENE,65,5.0,9.0,80,0.00,,,0.00,0.00,VWS V14.01,2013-10-13 10:11:00,
2013-10-13 06:15:00,54.5,48.5,30.31,NE,49,9.0,10.0,80,0.00,,,0.00,0.00,VWS V14.01,2013-10-13 10:15:00,
2013-10-13 06:16:00,54.5,48.5,30.31,NE,44,10.0,10.0,80,0.00,,,0.00,0.00,VWS V14.01,2013-10-13 10:16:00,
2013-10-13 06:21:00,54.5,48.5,30.31,NNE,33,0.0,12.0,80,0.00,,,0.00,0.00,VWS V14.01,2013-10-13 10:21:00,
2013-10-13 06:26:00,54.5,48.5,30.31,ENE,61,5.0,12.0,80,0.00,,,0.00,0.00,VWS V14.01,2013-10-13 10:26:00,
2013-10-13 06:30:00,54.5,48.1,30.32,ENE,57,0.0,12.0,79,0.00,,,0.00,0.00,VWS V14.01,2013-10-13 10:30:00,
2013-10-13 06:31:00,54.5,48.1,30.32,ENE,57,0.0,12.0,79,0.00,,,0.00,0.00,VWS V14.01,2013-10-13 10:31:00,
2013-10-13 06:36:00,54.5,48.1,30.32,East,92,0.0,7.0,79,0.00,,,0.00,0.00,VWS V14.01,2013-10-13 10:36:00,
2013-10-13 06:41:00,54.5,48.1,30.32,ENE,66,1.0,8.0,79,0.00,,,0.00,0.00,VWS V14.01,2013-10-13 10:41:00,
2013-10-13 06:45:00,54.5,48.1,30.32,ENE,75,0.0,8.0,79,0.00,,,0.00,0.00,VWS V14.01,2013-10-13 10:45:00,
2013-10-13 06:46:00,54.5,48.1,30.32,ENE,75,3.0,8.0,79,0.00,,,0.00,0.00,VWS V14.01,2013-10-13 10:46:00,
2013-10-13 06:50:00,54.5,48.1,30.32,East,82,0.0,6.0,79,0.00,,,0.00,0.00,VWS V14.01,2013-10-13 10:50:00,
2013-10-13 06:55:00,54.5,47.8,30.32,ENE,71,0.0,6.0,78,0.00,,,0.00,0.00,VWS V14.01,2013-10-13 10:55:00,
2013-10-13 07:00:00,54.5,47.8,30.32,NE,42,4.0,7.0,78,0.00,,,0.00,0.00,VWS V14.01,2013-10-13 11:00:00,
2013-10-13 07:05:00,54.5,48.1,30.32,East,84,5.0,13.0,79,0.00,,,0.00,0.00,VWS V14.01,2013-10-13 11:05:00,
2013-10-13 07:10:00,54.5,47.8,30.32,NE,47,6.0,13.0,78,0.00,,,0.00,0.00,VWS V14.01,2013-10-13 11:10:00,
2013-10-13 07:15:00,54.5,47.8,30.33,ENE,57,7.0,13.0,78,0.00,,,0.00,5.00,VWS V14.01,2013-10-13 11:15:00,
2013-10-13 07:20:00,54.5,47.8,30.33,ENE,59,6.0,10.0,78,0.00,,,0.00,9.00,VWS V14.01,2013-10-13 11:20:00,
2013-10-13 07:25:00,54.5,47.8,30.33,NE,42,4.0,10.0,78,0.00,,,0.00,11.00,VWS V14.01,2013-10-13 11:25:00,
2013-10-13 07:30:00,54.5,47.8,30.33,NE,54,3.0,10.0,78,0.00,,,0.00,11.00,VWS V14.01,2013-10-13 11:30:00,
2013-10-13 07:35:00,54.5,47.8,30.33,NE,34,4.0,7.0,78,0.00,,,0.00,14.00,VWS V14.01,2013-10-13 11:35:00,
2013-10-13 07:40:00,54.5,47.8,30.33,ENE,58,0.0,7.0,78,0.00,,,0.00,19.00,VWS V14.01,2013-10-13 11:40:00,
2013-10-13 07:45:00,54.5,47.8,30.34,East,88,7.0,11.0,78,0.00,,,0.00,25.00,VWS V14.01,2013-10-13 11:45:00,
2013-10-13 07:50:00,54.5,47.8,30.34,ENE,62,0.0,7.0,78,0.00,,,0.00,30.00,VWS V14.01,2013-10-13 11:50:00,
2013-10-13 07:55:00,54.5,47.8,30.34,NNE,26,4.0,7.0,78,0.00,,,0.00,33.00,VWS V14.01,2013-10-13 11:55:00,
2013-10-13 08:00:00,54.5,47.8,30.34,East,90,4.0,7.0,78,0.00,,,0.00,40.00,VWS V14.01,2013-10-13 12:00:00,
2013-10-13 08:05:00,54.5,47.8,30.34,NNE,30,0.0,8.0,78,0.00,,,0.00,54.00,VWS V14.01,2013-10-13 12:05:00,
2013-10-13 08:10:00,54.5,47.5,30.34,NE,42,0.0,9.0,77,0.00,,,0.00,81.00,VWS V14.01,2013-10-13 12:10:00,
2013-10-13 08:15:00,54.5,47.5,30.34,East,85,6.0,12.0,77,0.00,,,0.00,90.00,VWS V14.01,2013-10-13 12:15:00,
2013-10-13 08:20:00,54.5,47.1,30.34,East,82,11.0,13.0,76,0.00,,,0.00,132.00,VWS V14.01,2013-10-13 12:20:00,
2013-10-13 08:25:00,54.7,47.3,30.34,NE,34,3.0,13.0,76,0.00,,,0.00,163.00,VWS V14.01,2013-10-13 12:25:00,
2013-10-13 08:30:00,54.7,46.9,30.34,NE,51,0.0,15.0,75,0.00,,,0.00,246.00,VWS V14.01,2013-10-13 12:30:00,
2013-10-13 08:35:00,54.7,47.3,30.34,NE,51,8.0,13.0,76,0.00,,,0.00,199.00,VWS V14.01,2013-10-13 12:35:00,
2013-10-13 08:40:00,54.8,47.0,30.34,ENE,75,1.0,13.0,75,0.00,,,0.00,163.00,VWS V14.01,2013-10-13 12:40:00,
2013-10-13 08:45:00,55.0,46.9,30.34,ESE,119,0.0,14.0,74,0.00,,,0.00,320.00,VWS V14.01,2013-10-13 12:45:00,
2013-10-13 08:50:00,55.3,47.2,30.34,East,88,3.0,9.0,74,0.00,,,0.00,149.00,VWS V14.01,2013-10-13 12:50:00,
2013-10-13 08:55:00,55.1,47.3,30.34,East,88,7.0,14.0,75,0.00,,,0.00,151.00,VWS V14.01,2013-10-13 12:55:00,
2013-10-13 09:00:00,55.0,47.2,30.35,North,11,5.0,14.0,75,0.00,,,0.00,149.00,VWS V14.01,2013-10-13 13:00:00,
2013-10-13 09:05:00,55.1,47.3,30.35,ENE,60,4.0,8.0,75,0.00,,,0.00,146.00,VWS V14.01,2013-10-13 13:05:00,
2013-10-13 09:10:00,55.1,47.3,30.35,East,90,4.0,9.0,75,0.00,,,0.00,144.00,VWS V14.01,2013-10-13 13:10:00,
2013-10-13 09:15:00,55.3,47.2,30.36,NE,55,6.0,12.0,74,0.00,,,0.00,141.00,VWS V14.01,2013-10-13 13:15:00,
2013-10-13 09:20:00,55.3,47.5,30.36,NE,54,2.0,13.0,75,0.00,,,0.00,163.00,VWS V14.01,2013-10-13 13:20:00,
2013-10-13 09:25:00,55.3,47.5,30.36,NE,39,6.0,13.0,75,0.00,,,0.00,158.00,VWS V14.01,2013-10-13 13:25:00,
2013-10-13 09:30:00,55.4,47.3,30.37,NE,37,8.0,13.0,74,0.00,,,0.00,158.00,VWS V14.01,2013-10-13 13:30:00,
2013-10-13 09:35:00,55.4,47.6,30.37,NE,44,8.0,13.0,75,0.00,,,0.00,206.00,VWS V14.01,2013-10-13 13:35:00,
2013-10-13 09:40:00,55.4,47.6,30.37,East,87,6.0,13.0,75,0.00,,,0.00,243.00,VWS V14.01,2013-10-13 13:40:00,
2013-10-13 09:45:00,55.7,47.5,30.37,East,80,10.0,13.0,74,0.00,,,0.00,274.00,VWS V14.01,2013-10-13 13:45:00,
2013-10-13 09:50:00,55.9,47.7,30.37,ENE,68,9.0,15.0,74,0.00,,,0.00,301.00,VWS V14.01,2013-10-13 13:50:00,
2013-10-13 09:55:00,56.0,47.8,30.37,ENE,58,15.0,15.0,74,0.00,,,0.00,264.00,VWS V14.01,2013-10-13 13:55:00,
2013-10-13 10:00:00,56.0,47.5,30.37,NE,46,5.0,15.0,73,0.00,,,0.00,239.00,VWS V14.01,2013-10-13 14:00:00,
2013-10-13 10:05:00,55.7,47.2,30.37,NE,53,11.0,16.0,73,0.00,,,0.00,237.00,VWS V14.01,2013-10-13 14:05:00,
2013-10-13 10:10:00,55.6,47.1,30.37,NE,40,16.0,16.0,73,0.00,,,0.00,223.00,VWS V14.01,2013-10-13 14:10:00,
2013-10-13 10:15:00,55.7,47.2,30.37,East,92,10.0,16.0,73,0.00,,,0.00,239.00,VWS V14.01,2013-10-13 14:15:00,
2013-10-13 10:20:00,56.0,47.8,30.37,NNE,14,4.0,11.0,74,0.00,,,0.00,288.00,VWS V14.01,2013-10-13 14:20:00,
2013-10-13 10:25:00,56.0,47.5,30.37,NE,49,9.0,13.0,73,0.00,,,0.00,329.00,VWS V14.01,2013-10-13 14:25:00,
2013-10-13 10:30:00,56.3,47.8,30.37,ENE,73,4.0,15.0,73,0.00,,,0.00,401.00,VWS V14.01,2013-10-13 14:30:00,
2013-10-13 10:35:00,56.7,47.4,30.37,ENE,78,10.0,13.0,71,0.00,,,0.00,339.00,VWS V14.01,2013-10-13 14:35:00,
2013-10-13 10:40:00,56.6,47.3,30.37,NE,35,6.0,14.0,71,0.00,,,0.00,425.00,VWS V14.01,2013-10-13 14:40:00,
2013-10-13 10:45:00,56.9,47.6,30.37,NNE,13,7.0,14.0,71,0.00,,,0.00,457.00,VWS V14.01,2013-10-13 14:45:00,
2013-10-13 10:50:00,56.6,46.9,30.37,East,86,4.0,13.0,70,0.00,,,0.00,299.00,VWS V14.01,2013-10-13 14:50:00,
2013-10-13 10:55:00,56.9,47.6,30.37,East,91,14.0,14.0,71,0.00,,,0.00,684.00,VWS V14.01,2013-10-13 14:55:00,
2013-10-13 11:00:00,56.9,47.2,30.37,ENE,75,9.0,15.0,70,0.00,,,0.00,698.00,VWS V14.01,2013-10-13 15:00:00,
2013-10-13 11:05:00,57.2,47.1,30.37,NNE,22,16.0,18.0,69,0.00,,,0.00,742.00,VWS V14.01,2013-10-13 15:05:00,
2013-10-13 11:10:00,57.5,47.0,30.37,East,100,9.0,18.0,68,0.00,,,0.00,724.00,VWS V14.01,2013-10-13 15:10:00,
2013-10-13 11:15:00,58.4,47.5,30.37,East,94,7.0,18.0,67,0.00,,,0.00,425.00,VWS V14.01,2013-10-13 15:15:00,
2013-10-13 11:20:00,57.8,46.5,30.37,East,86,8.0,15.0,66,0.00,,,0.00,381.00,VWS V14.01,2013-10-13 15:20:00,
2013-10-13 11:25:00,58.4,47.5,30.37,NE,38,7.0,15.0,67,0.00,,,0.00,406.00,VWS V14.01,2013-10-13 15:25:00,
2013-10-13 11:30:00,58.6,47.3,30.37,NE,50,7.0,15.0,66,0.00,,,0.00,427.00,VWS V14.01,2013-10-13 15:30:00,
2013-10-13 11:35:00,58.3,47.4,30.37,ENE,61,4.0,14.0,67,0.00,,,0.00,531.00,VWS V14.01,2013-10-13 15:35:00,
2013-10-13 11:40:00,58.6,47.3,30.37,East,88,11.0,14.0,66,0.00,,,0.00,531.00,VWS V14.01,2013-10-13 15:40:00,
2013-10-13 11:45:00,58.7,46.6,30.38,SE,126,7.0,14.0,64,0.00,,,0.00,459.00,VWS V14.01,2013-10-13 15:45:00,
2013-10-13 11:50:00,58.4,46.3,30.38,East,89,5.0,11.0,64,0.00,,,0.00,664.00,VWS V14.01,2013-10-13 15:50:00,
2013-10-13 11:55:00,59.6,47.4,30.38,ENE,68,2.0,11.0,64,0.00,,,0.00,821.00,VWS V14.01,2013-10-13 15:55:00,
2013-10-13 12:00:00,59.6,47.8,30.38,East,95,10.0,11.0,65,0.00,,,0.00,733.00,VWS V14.01,2013-10-13 16:00:00,
2013-10-13 12:05:00,58.7,47.0,30.38,ESE,112,4.0,13.0,65,0.00,,,0.00,441.00,VWS V14.01,2013-10-13 16:05:00,
2013-10-13 12:10:00,59.8,47.6,30.38,ESE,102,5.0,13.0,64,0.00,,,0.00,443.00,VWS V14.01,2013-10-13 16:10:00,
2013-10-13 12:15:00,59.6,47.8,30.38,East,84,4.0,13.0,65,0.00,,,0.00,793.00,VWS V14.01,2013-10-13 16:15:00,
2013-10-13 12:20:00,60.4,48.2,30.38,SSW,193,5.0,9.0,64,0.00,,,0.00,719.00,VWS V14.01,2013-10-13 16:20:00,
2013-10-13 12:25:00,60.1,47.5,30.38,NNE,25,5.0,10.0,63,0.00,,,0.00,399.00,VWS V14.01,2013-10-13 16:25:00,
2013-10-13 12:30:00,59.2,47.0,30.37,ENE,65,7.0,12.0,64,0.00,,,0.00,265.00,VWS V14.01,2013-10-13 16:30:00,
2013-10-13 12:35:00,58.6,47.3,30.37,East,88,12.0,12.0,66,0.00,,,0.00,496.00,VWS V14.01,2013-10-13 16:35:00,
2013-10-13 12:40:00,58.7,47.0,30.37,ENE,57,7.0,16.0,65,0.00,,,0.00,483.00,VWS V14.01,2013-10-13 16:40:00,
2013-10-13 12:45:00,59.3,48.0,30.37,NE,48,6.0,16.0,66,0.00,,,0.00,591.00,VWS V14.01,2013-10-13 16:45:00,
2013-10-13 12:50:00,60.1,47.9,30.36,NE,34,8.0,9.0,64,0.00,,,0.00,679.00,VWS V14.01,2013-10-13 16:50:00,
2013-10-13 12:55:00,60.4,47.8,30.36,NE,54,11.0,13.0,63,0.00,,,0.00,659.00,VWS V14.01,2013-10-13 16:55:00,
2013-10-13 13:00:00,59.8,47.2,30.36,NE,54,9.0,13.0,63,0.00,,,0.00,657.00,VWS V14.01,2013-10-13 17:00:00,
2013-10-13 13:05:00,60.4,48.2,30.36,NE,35,2.0,12.0,64,0.00,,,0.00,647.00,VWS V14.01,2013-10-13 17:05:00,
2013-10-13 13:10:00,60.9,47.8,30.36,ESE,115,7.0,12.0,62,0.00,,,0.00,654.00,VWS V14.01,2013-10-13 17:10:00,
2013-10-13 13:15:00,61.0,48.3,30.36,NE,34,12.0,12.0,63,0.00,,,0.00,654.00,VWS V14.01,2013-10-13 17:15:00,
2013-10-13 13:20:00,61.3,48.6,30.35,NE,53,7.0,9.0,63,0.00,,,0.00,650.00,VWS V14.01,2013-10-13 17:20:00,
2013-10-13 13:25:00,61.3,47.8,30.35,ENE,62,7.0,12.0,61,0.00,,,0.00,649.00,VWS V14.01,2013-10-13 17:25:00,
2013-10-13 13:30:00,60.7,47.6,30.35,NE,45,10.0,14.0,62,0.00,,,0.00,645.00,VWS V14.01,2013-10-13 17:30:00,
2013-10-13 13:35:00,60.7,48.0,30.35,NE,51,8.0,12.0,63,0.00,,,0.00,647.00,VWS V14.01,2013-10-13 17:35:00,
2013-10-13 13:40:00,61.6,48.0,30.35,NE,40,5.0,12.0,61,0.00,,,0.00,642.00,VWS V14.01,2013-10-13 17:40:00,
2013-10-13 13:45:00,62.1,48.5,30.35,ENE,60,8.0,12.0,61,0.00,,,0.00,640.00,VWS V14.01,2013-10-13 17:45:00,
2013-10-13 13:50:00,62.0,48.0,30.34,NNE,30,11.0,13.0,60,0.00,,,0.00,633.00,VWS V14.01,2013-10-13 17:50:00,
2013-10-13 13:55:00,62.1,47.6,30.34,East,99,1.0,13.0,59,0.00,,,0.00,626.00,VWS V14.01,2013-10-13 17:55:00,
2013-10-13 14:00:00,63.1,47.2,30.34,SSW,211,3.0,13.0,56,0.00,,,0.00,624.00,VWS V14.01,2013-10-13 18:00:00,
2013-10-13 14:05:00,62.7,46.8,30.35,SE,142,13.0,13.0,56,0.00,,,0.00,619.00,VWS V14.01,2013-10-13 18:05:00,
2013-10-13 14:10:00,62.6,47.6,30.35,East,80,0.0,18.0,58,0.00,,,0.00,608.00,VWS V14.01,2013-10-13 18:10:00,
2013-10-13 14:15:00,63.5,48.5,30.35,East,82,3.0,18.0,58,0.00,,,0.00,613.00,VWS V14.01,2013-10-13 18:15:00,
2013-10-13 14:20:00,64.3,47.8,30.34,NE,50,2.0,8.0,55,0.00,,,0.00,585.00,VWS V14.01,2013-10-13 18:20:00,
2013-10-13 14:25:00,63.1,47.6,30.34,ENE,70,2.0,9.0,57,0.00,,,0.00,584.00,VWS V14.01,2013-10-13 18:25:00,
2013-10-13 14:30:00,62.7,48.6,30.34,ENE,70,11.0,13.0,60,0.00,,,0.00,578.00,VWS V14.01,2013-10-13 18:30:00,
2013-10-13 14:35:00,62.4,47.9,30.34,SSW,194,5.0,13.0,59,0.00,,,0.00,571.00,VWS V14.01,2013-10-13 18:35:00,
2013-10-13 14:40:00,62.4,47.5,30.34,East,98,11.0,13.0,58,0.00,,,0.00,564.00,VWS V14.01,2013-10-13 18:40:00,
2013-10-13 14:45:00,63.1,47.6,30.34,SSE,163,3.0,13.0,57,0.00,,,0.00,554.00,VWS V14.01,2013-10-13 18:45:00,
2013-10-13 14:50:00,63.7,48.2,30.33,East,86,5.0,12.0,57,0.00,,,0.00,547.00,VWS V14.01,2013-10-13 18:50:00,
2013-10-13 14:55:00,63.7,48.7,30.33,NNE,19,4.0,12.0,58,0.00,,,0.00,536.00,VWS V14.01,2013-10-13 18:55:00,
2013-10-13 15:00:00,63.2,48.7,30.33,ENE,72,5.0,14.0,59,0.00,,,0.00,526.00,VWS V14.01,2013-10-13 19:00:00,
2013-10-13 15:05:00,63.1,48.1,30.33,East,79,10.0,13.0,58,0.00,,,0.00,517.00,VWS V14.01,2013-10-13 19:05:00,
2013-10-13 15:10:00,63.4,47.9,30.33,SE,130,6.0,14.0,57,0.00,,,0.00,503.00,VWS V14.01,2013-10-13 19:10:00,
2013-10-13 15:15:00,63.2,48.7,30.33,East,88,5.0,14.0,59,0.00,,,0.00,494.00,VWS V14.01,2013-10-13 19:15:00,
2013-10-13 15:20:00,63.4,48.4,30.32,WNW,286,1.0,14.0,58,0.00,,,0.00,483.00,VWS V14.01,2013-10-13 19:20:00,
2013-10-13 15:25:00,63.5,48.5,30.32,ESE,119,0.0,14.0,58,0.00,,,0.00,475.00,VWS V14.01,2013-10-13 19:25:00,
2013-10-13 15:30:00,64.5,49.4,30.32,ENE,62,5.0,14.0,58,0.00,,,0.00,462.00,VWS V14.01,2013-10-13 19:30:00,
2013-10-13 15:35:00,64.0,48.5,30.32,SE,143,4.0,9.0,57,0.00,,,0.00,436.00,VWS V14.01,2013-10-13 19:35:00,
2013-10-13 15:40:00,65.0,48.9,30.32,ENE,65,5.0,9.0,56,0.00,,,0.00,432.00,VWS V14.01,2013-10-13 19:40:00,
2013-10-13 15:45:00,64.3,48.8,30.32,ENE,77,7.0,12.0,57,0.00,,,0.00,425.00,VWS V14.01,2013-10-13 19:45:00,
2013-10-13 15:50:00,64.2,49.6,30.32,NE,53,6.0,12.0,59,0.00,,,0.00,413.00,VWS V14.01,2013-10-13 19:50:00,
2013-10-13 15:55:00,64.0,48.9,30.32,ENE,70,7.0,12.0,58,0.00,,,0.00,401.00,VWS V14.01,2013-10-13 19:55:00,
2013-10-13 16:00:00,64.5,49.4,30.32,NE,46,7.0,12.0,58,0.00,,,0.00,381.00,VWS V14.01,2013-10-13 20:00:00,
2013-10-13 16:05:00,64.3,48.8,30.32,East,85,7.0,11.0,57,0.00,,,0.00,376.00,VWS V14.01,2013-10-13 20:05:00,
2013-10-13 16:10:00,64.2,49.1,30.32,ESE,107,7.0,11.0,58,0.00,,,0.00,362.00,VWS V14.01,2013-10-13 20:10:00,
2013-10-13 16:15:00,64.2,48.7,30.32,SE,146,0.0,11.0,57,0.00,,,0.00,345.00,VWS V14.01,2013-10-13 20:15:00,
2013-10-13 16:20:00,65.0,49.4,30.32,East,97,5.0,6.0,57,0.00,,,0.00,329.00,VWS V14.01,2013-10-13 20:20:00,
2013-10-13 16:25:00,64.8,49.2,30.32,East,92,0.0,12.0,57,0.00,,,0.00,318.00,VWS V14.01,2013-10-13 20:25:00,
2013-10-13 16:30:00,65.3,49.7,30.32,NE,55,2.0,12.0,57,0.00,,,0.00,302.00,VWS V14.01,2013-10-13 20:30:00,
2013-10-13 16:35:00,65.0,49.4,30.32,NE,46,6.0,9.0,57,0.00,,,0.00,297.00,VWS V14.01,2013-10-13 20:35:00,
2013-10-13 16:40:00,64.3,50.6,30.32,ENE,57,6.0,10.0,61,0.00,,,0.00,288.00,VWS V14.01,2013-10-13 20:40:00,
2013-10-13 16:45:00,64.0,49.8,30.32,ENE,58,6.0,10.0,60,0.00,,,0.00,308.00,VWS V14.01,2013-10-13 20:45:00,
2013-10-13 16:50:00,63.9,49.8,30.33,NE,37,8.0,10.0,60,0.00,,,0.00,279.00,VWS V14.01,2013-10-13 20:50:00,
2013-10-13 16:55:00,63.9,49.8,30.33,East,83,5.0,10.0,60,0.00,,,0.00,65.00,VWS V14.01,2013-10-13 20:55:00,
2013-10-13 17:00:00,63.4,49.7,30.33,East,82,2.0,10.0,61,0.00,,,0.00,67.00,VWS V14.01,2013-10-13 21:00:00,
2013-10-13 17:05:00,63.1,49.9,30.33,ESE,119,6.0,7.0,62,0.00,,,0.00,104.00,VWS V14.01,2013-10-13 21:05:00,
2013-10-13 17:10:00,62.9,49.3,30.33,East,79,0.0,7.0,61,0.00,,,0.00,93.00,VWS V14.01,2013-10-13 21:10:00,
2013-10-13 17:15:00,62.7,49.5,30.33,ESE,105,5.0,8.0,62,0.00,,,0.00,195.00,VWS V14.01,2013-10-13 21:15:00,
2013-10-13 17:20:00,63.1,50.3,30.33,NNE,17,1.0,6.0,63,0.00,,,0.00,53.00,VWS V14.01,2013-10-13 21:20:00,
2013-10-13 17:25:00,62.9,49.7,30.33,East,84,0.0,6.0,62,0.00,,,0.00,63.00,VWS V14.01,2013-10-13 21:25:00,
2013-10-13 17:29:00,63.1,49.9,30.33,East,90,0.0,6.0,62,0.00,,,0.00,137.00,VWS V14.01,2013-10-13 21:29:00,
2013-10-13 17:35:00,63.4,49.7,30.33,East,90,0.0,0.0,61,0.00,,,0.00,46.00,VWS V14.01,2013-10-13 21:35:00,
2013-10-13 17:40:00,63.2,50.0,30.33,East,90,0.0,1.0,62,0.00,,,0.00,44.00,VWS V14.01,2013-10-13 21:40:00,
2013-10-13 17:45:00,63.1,49.9,30.33,East,90,0.0,0.0,62,0.00,,,0.00,53.00,VWS V14.01,2013-10-13 21:45:00,
2013-10-13 17:50:00,62.9,49.7,30.33,East,98,2.0,4.0,62,0.00,,,0.00,54.00,VWS V14.01,2013-10-13 21:50:00,
2013-10-13 17:55:00,62.7,50.4,30.33,East,98,0.0,4.0,64,0.00,,,0.00,67.00,VWS V14.01,2013-10-13 21:55:00,
2013-10-13 18:00:00,62.7,50.4,30.33,ESE,104,0.0,0.0,64,0.00,,,0.00,46.00,VWS V14.01,2013-10-13 22:00:00,
2013-10-13 18:05:00,62.7,50.4,30.33,ESE,110,0.0,1.0,64,0.00,,,0.00,30.00,VWS V14.01,2013-10-13 22:05:00,
2013-10-13 18:10:00,62.4,50.1,30.33,East,83,0.0,5.0,64,0.00,,,0.00,16.00,VWS V14.01,2013-10-13 22:10:00,
2013-10-13 18:15:00,62.1,50.2,30.34,East,83,0.0,5.0,65,0.00,,,0.00,7.00,VWS V14.01,2013-10-13 22:15:00,
2013-10-13 18:20:00,62.0,50.5,30.34,East,83,0.0,0.0,66,0.00,,,0.00,0.00,VWS V14.01,2013-10-13 22:20:00,
2013-10-13 18:25:00,61.6,50.1,30.34,East,83,0.0,0.0,66,0.00,,,0.00,0.00,VWS V14.01,2013-10-13 22:25:00,
2013-10-13 18:30:00,61.5,50.5,30.34,East,83,0.0,0.0,67,0.00,,,0.00,0.00,VWS V14.01,2013-10-13 22:30:00,
2013-10-13 18:35:00,61.0,50.0,30.34,East,83,0.0,0.0,67,0.00,,,0.00,0.00,VWS V14.01,2013-10-13 22:35:00,
2013-10-13 18:40:00,60.7,50.5,30.34,East,83,0.0,0.0,69,0.00,,,0.00,0.00,VWS V14.01,2013-10-13 22:40:00,
2013-10-13 18:45:00,60.1,50.7,30.34,East,83,0.0,0.0,71,0.00,,,0.00,0.00,VWS V14.01,2013-10-13 22:45:00,
2013-10-13 18:50:00,59.6,50.6,30.34,East,83,0.0,0.0,72,0.00,,,0.00,0.00,VWS V14.01,2013-10-13 22:50:00,
2013-10-13 18:55:00,59.0,50.7,30.34,East,83,0.0,0.0,74,0.00,,,0.00,0.00,VWS V14.01,2013-10-13 22:55:00,
2013-10-13 19:00:00,58.4,50.9,30.34,East,83,0.0,0.0,76,0.00,,,0.00,0.00,VWS V14.01,2013-10-13 23:00:00,
2013-10-13 19:05:00,57.8,50.7,30.34,East,83,0.0,0.0,77,0.00,,,0.00,0.00,VWS V14.01,2013-10-13 23:05:00,
2013-10-13 19:10:00,57.2,50.4,30.34,East,83,0.0,0.0,78,0.00,,,0.00,0.00,VWS V14.01,2013-10-13 23:10:00,
2013-10-13 19:15:00,56.6,50.2,30.34,East,83,0.0,0.0,79,0.00,,,0.00,0.00,VWS V14.01,2013-10-13 23:15:00,
2013-10-13 19:20:00,56.0,50.3,30.34,East,83,0.0,0.0,81,0.00,,,0.00,0.00,VWS V14.01,2013-10-13 23:20:00,
2013-10-13 19:25:00,55.7,50.0,30.34,East,83,0.0,0.0,81,0.00,,,0.00,0.00,VWS V14.01,2013-10-13 23:25:00,
2013-10-13 19:30:00,55.3,49.9,30.35,East,83,0.0,0.0,82,0.00,,,0.00,0.00,VWS V14.01,2013-10-13 23:30:00,
2013-10-13 19:35:00,55.0,49.9,30.35,East,83,0.0,0.0,83,0.00,,,0.00,0.00,VWS V14.01,2013-10-13 23:35:00,
2013-10-13 19:40:00,54.5,49.5,30.35,East,83,0.0,0.0,83,0.00,,,0.00,0.00,VWS V14.01,2013-10-13 23:40:00,
2013-10-13 19:45:00,54.2,49.5,30.35,East,83,0.0,0.0,84,0.00,,,0.00,0.00,VWS V14.01,2013-10-13 23:45:00,
2013-10-13 19:50:00,53.9,49.5,30.35,East,83,0.0,0.0,85,0.00,,,0.00,0.00,VWS V14.01,2013-10-13 23:50:00,
2013-10-13 19:55:00,53.6,49.2,30.35,East,83,0.0,0.0,85,0.00,,,0.00,0.00,VWS V14.01,2013-10-13 23:55:00,
2013-10-13 20:00:00,53.5,49.4,30.35,East,83,0.0,0.0,86,0.00,,,0.00,0.00,VWS V14.01,2013-10-14 00:00:00,
2013-10-13 20:05:00,53.2,49.4,30.35,East,83,0.0,0.0,87,0.00,,,0.00,0.00,VWS V14.01,2013-10-14 00:05:00,
2013-10-13 20:10:00,53.1,49.3,30.35,East,83,0.0,0.0,87,0.00,,,0.00,0.00,VWS V14.01,2013-10-14 00:10:00,
2013-10-13 20:14:00,52.9,49.1,30.35,East,83,0.0,0.0,87,0.00,,,0.00,0.00,VWS V14.01,2013-10-14 00:14:00,
2013-10-13 20:15:00,52.9,49.1,30.35,East,83,0.0,0.0,87,0.00,,,0.00,0.00,VWS V14.01,2013-10-14 00:15:00,
2013-10-13 20:19:00,52.6,49.2,30.35,East,83,0.0,0.0,88,0.00,,,0.00,0.00,VWS V14.01,2013-10-14 00:19:00,
2013-10-13 20:24:00,52.5,49.0,30.35,East,83,0.0,0.0,88,0.00,,,0.00,0.00,VWS V14.01,2013-10-14 00:24:00,
2013-10-13 20:29:00,52.3,49.2,30.36,East,83,0.0,1.0,89,0.00,,,0.00,0.00,VWS V14.01,2013-10-14 00:29:00,
2013-10-13 20:30:00,52.3,49.2,30.36,East,83,0.0,1.0,89,0.00,,,0.00,0.00,VWS V14.01,2013-10-14 00:30:00,
2013-10-13 20:34:00,52.2,49.1,30.36,East,83,0.0,0.0,89,0.00,,,0.00,0.00,VWS V14.01,2013-10-14 00:34:00,
2013-10-13 20:39:00,52.0,48.9,30.36,East,94,6.0,6.0,89,0.00,,,0.00,0.00,VWS V14.01,2013-10-14 00:39:00,
2013-10-13 20:44:00,52.0,48.9,30.36,East,81,0.0,6.0,89,0.00,,,0.00,0.00,VWS V14.01,2013-10-14 00:44:00,
2013-10-13 20:45:00,52.0,48.9,30.36,East,81,0.0,6.0,89,0.00,,,0.00,0.00,VWS V14.01,2013-10-14 00:45:00,
2013-10-13 20:49:00,52.0,48.9,30.36,East,81,0.0,0.0,89,0.00,,,0.00,0.00,VWS V14.01,2013-10-14 00:49:00,
2013-10-13 20:54:00,52.0,48.9,30.36,East,100,1.0,5.0,89,0.00,,,0.00,0.00,VWS V14.01,2013-10-14 00:54:00,
2013-10-13 20:59:00,52.2,49.1,30.36,East,96,2.0,5.0,89,0.00,,,0.00,0.00,VWS V14.01,2013-10-14 00:59:00,
2013-10-13 21:00:00,52.2,49.1,30.36,East,96,2.0,5.0,89,0.00,,,0.00,0.00,VWS V14.01,2013-10-14 01:00:00,
2013-10-13 21:04:00,52.3,49.2,30.36,East,101,0.0,6.0,89,0.00,,,0.00,0.00,VWS V14.01,2013-10-14 01:04:00,
2013-10-13 21:09:00,52.5,49.4,30.36,East,95,2.0,6.0,89,0.00,,,0.00,0.00,VWS V14.01,2013-10-14 01:09:00,
2013-10-13 21:14:00,52.5,49.0,30.36,East,79,0.0,6.0,88,0.00,,,0.00,0.00,VWS V14.01,2013-10-14 01:14:00,
2013-10-13 21:15:00,52.5,49.1,30.36,East,79,0.0,6.0,88,0.00,,,0.00,0.00,VWS V14.01,2013-10-14 01:15:00,
2013-10-13 21:19:00,52.6,49.2,30.36,ESE,107,2.0,6.0,88,0.00,,,0.00,0.00,VWS V14.01,2013-10-14 01:19:00,
2013-10-13 21:24:00,52.8,49.0,30.36,East,88,0.0,6.0,87,0.00,,,0.00,0.00,VWS V14.01,2013-10-14 01:24:00,
2013-10-13 21:29:00,52.9,48.8,30.37,East,88,0.0,6.0,86,0.00,,,0.00,0.00,VWS V14.01,2013-10-14 01:29:00,
2013-10-13 21:30:00,52.9,48.8,30.37,East,88,0.0,6.0,86,0.00,,,0.00,0.00,VWS V14.01,2013-10-14 01:30:00,
2013-10-13 21:35:00,52.9,48.8,30.37,East,82,0.0,7.0,86,0.00,,,0.00,0.00,VWS V14.01,2013-10-14 01:35:00,
2013-10-13 21:40:00,53.1,48.7,30.37,SE,124,0.0,7.0,85,0.00,,,0.00,0.00,VWS V14.01,2013-10-14 01:40:00,
2013-10-13 21:45:00,53.1,48.7,30.37,ESE,107,4.0,7.0,85,0.00,,,0.00,0.00,VWS V14.01,2013-10-14 01:45:00,
2013-10-13 21:50:00,53.2,48.8,30.37,ENE,73,0.0,6.0,85,0.00,,,0.00,0.00,VWS V14.01,2013-10-14 01:50:00,
2013-10-13 21:55:00,53.3,48.9,30.37,East,85,7.0,7.0,85,0.00,,,0.00,0.00,VWS V14.01,2013-10-14 01:55:00,
2013-10-13 22:02:00,53.5,48.8,30.37,East,88,0.0,0.0,84,0.00,,,0.00,0.00,VWS V14.01,2013-10-14 02:02:00,
2013-10-13 22:07:00,53.5,48.8,30.37,ESE,102,0.0,6.0,84,0.00,,,0.00,0.00,VWS V14.01,2013-10-14 02:07:00,
2013-10-13 22:12:00,53.5,48.8,30.37,ENE,65,0.0,6.0,84,0.00,,,0.00,0.00,VWS V14.01,2013-10-14 02:12:00,
2013-10-13 22:15:00,53.5,48.8,30.37,ESE,103,2.0,6.0,84,0.00,,,0.00,0.00,VWS V14.01,2013-10-14 02:15:00,
2013-10-13 22:17:00,53.5,48.5,30.37,ESE,103,0.0,4.0,83,0.00,,,0.00,0.00,VWS V14.01,2013-10-14 02:17:00,
2013-10-13 22:22:00,53.3,48.3,30.37,ESE,110,0.0,7.0,83,0.00,,,0.00,0.00,VWS V14.01,2013-10-14 02:22:00,
2013-10-13 22:27:00,53.3,48.3,30.37,East,96,5.0,7.0,83,0.00,,,0.00,0.00,VWS V14.01,2013-10-14 02:27:00,
2013-10-13 22:30:00,53.3,48.3,30.37,ENE,74,0.0,7.0,83,0.00,,,0.00,0.00,VWS V14.01,2013-10-14 02:30:00,
2013-10-13 22:32:00,53.3,48.6,30.37,SE,126,0.0,5.0,84,0.00,,,0.00,0.00,VWS V14.01,2013-10-14 02:32:00,
2013-10-13 22:37:00,53.2,48.5,30.37,ENE,70,1.0,5.0,84,0.00,,,0.00,0.00,VWS V14.01,2013-10-14 02:37:00,
2013-10-13 22:42:00,53.2,48.5,30.37,ENE,70,0.0,5.0,84,0.00,,,0.00,0.00,VWS V14.01,2013-10-14 02:42:00,
2013-10-13 22:45:00,53.2,48.5,30.37,ENE,70,0.0,5.0,84,0.00,,,0.00,0.00,VWS V14.01,2013-10-14 02:45:00,
2013-10-13 22:47:00,53.1,48.4,30.37,East,80,0.0,4.0,84,0.00,,,0.00,0.00,VWS V14.01,2013-10-14 02:47:00,
2013-10-13 22:52:00,53.1,48.4,30.37,East,98,0.0,4.0,84,0.00,,,0.00,0.00,VWS V14.01,2013-10-14 02:52:00,
2013-10-13 22:57:00,52.9,48.5,30.37,East,97,0.0,4.0,85,0.00,,,0.00,0.00,VWS V14.01,2013-10-14 02:57:00,
2013-10-13 23:00:00,52.9,48.5,30.37,East,97,0.0,4.0,85,0.00,,,0.00,0.00,VWS V14.01,2013-10-14 03:00:00,
2013-10-13 23:02:00,52.8,48.4,30.37,East,97,0.0,0.0,85,0.00,,,0.00,0.00,VWS V14.01,2013-10-14 03:02:00,
2013-10-13 23:07:00,52.6,48.2,30.37,East,97,0.0,0.0,85,0.00,,,0.00,0.00,VWS V14.01,2013-10-14 03:07:00,
2013-10-13 23:12:00,52.6,48.2,30.37,East,97,0.0,0.0,85,0.00,,,0.00,0.00,VWS V14.01,2013-10-14 03:12:00,
2013-10-13 23:15:00,52.5,48.1,30.37,East,97,0.0,0.0,85,0.00,,,0.00,0.00,VWS V14.01,2013-10-14 03:15:00,
2013-10-13 23:17:00,52.5,48.1,30.37,East,97,0.0,0.0,85,0.00,,,0.00,0.00,VWS V14.01,2013-10-14 03:17:00,
2013-10-13 23:22:00,52.3,47.9,30.37,East,97,0.0,0.0,85,0.00,,,0.00,0.00,VWS V14.01,2013-10-14 03:22:00,
2013-10-13 23:27:00,52.2,47.8,30.37,East,97,0.0,0.0,85,0.00,,,0.00,0.00,VWS V14.01,2013-10-14 03:27:00,
2013-10-13 23:30:00,52.2,48.2,30.37,East,97,0.0,0.0,86,0.00,,,0.00,0.00,VWS V14.01,2013-10-14 03:30:00,
2013-10-13 23:32:00,52.0,48.0,30.37,East,97,0.0,0.0,86,0.00,,,0.00,0.00,VWS V14.01,2013-10-14 03:32:00,
2013-10-13 23:37:00,51.7,47.7,30.37,East,97,0.0,0.0,86,0.00,,,0.00,0.00,VWS V14.01,2013-10-14 03:37:00,
2013-10-13 23:42:00,51.6,47.6,30.37,East,97,0.0,0.0,86,0.00,,,0.00,0.00,VWS V14.01,2013-10-14 03:42:00,
2013-10-13 23:45:00,51.4,47.4,30.37,East,97,0.0,0.0,86,0.00,,,0.00,0.00,VWS V14.01,2013-10-14 03:45:00,
2013-10-13 23:47:00,51.3,47.3,30.37,East,97,0.0,0.0,86,0.00,,,0.00,0.00,VWS V14.01,2013-10-14 03:47:00,
2013-10-13 23:52:00,51.0,47.3,30.37,East,97,0.0,0.0,87,0.00,,,0.00,0.00,VWS V14.01,2013-10-14 03:52:00,
2013-10-13 23:57:00,50.7,47.3,30.37,East,97,0.0,0.0,88,0.00,,,0.00,0.00,VWS V14.01,2013-10-14 03:57:00,